Content
SEND FEEDBACK

Daily
Averages
Monthly
Summary
Canada

CORNER BROOK, NEWFOUNDLAND


Home > North America > Canada > Newfoundland
Elevation: 16 feet     Latitude: 48 57N     Longitude: 057 57W

WEATHER
 
SELECT A DAY
Number of Records: 181,403;   Date Range: 1/1/95 - 9/15/14
 
SHARE

PRINT THIS DATA

[ ← Previous Day ]
WEATHER ALMANAC - NOVEMBER 13, 2013
[ Next Day → ]
[ °C ]   °F
Weather ElementAverageHighLow
Temperature31.6 °F33.8 °F (12:30 am)30.2 °F (7:13 am)
Dewpoint27.1 °F32 °F (12:30 am)24 °F (8:30 pm)
Humidity82.8 %100 % (1:30 am)66 % (2:30 pm)
Barometer29.68 in29.77 in (11:30 pm)29.63 in (12:30 pm)
Wind Speed12.3 mph19.6 mph (2:30 am)
Wind Gust32.2 mph (8:30 am)
Weather ElementAverage
Visibility11 mi
Wind DirectionWSW (235.3 °)

Weather ElementTotal
Precipitation---
Heating Degree Days33 (Base 65)
Averaged from 36 records on November 13, 2013
WEATHER CONDITIONS BREAKOUT
WIND DIRECTION BREAKOUT
WEATHER BY HOUR - NOVEMBER 13, 2013
[ °C ]   °F
Local TimeTemperatureDewpointHumidityBarometerVisibilityWind DirectionWind SpeedGust SpeedPrecipitationEventsConditions
12:30 AM33.8 °F32.0 °F93 %29.68 in8.0 miSW (230°)9.2 mphRain-SnowLight Rain
12:55 AM33.8 °F32.0 °F93 %29.67 in4.0 miSW (220°)10.4 mphRain-SnowLight Rain
1:30 AM32.0 °F32.0 °F100 %29.66 in4.0 miSW (220°)18.4 mphRain-SnowLight Rain
2:30 AM32.0 °F31.0 °F93 %29.66 in4.0 miSW (230°)19.6 mphSnowLight Snow Showers
2:30 AM32.0 °F30.2 °F93 %29.66 in4.0 miSW (220°)19.6 mph26.5 mphRain-SnowLight Rain
3:24 AM32.0 °F30.2 °F93 %29.65 in6.0 miSW (230°)13.8 mph19.6 mphSnowLight Snow
3:30 AM32.0 °F30.2 °F93 %29.65 in6.0 miSW (230°)10.4 mph18.4 mphSnowLight Snow
4:19 AM32.0 °F28.4 °F87 %29.65 in12.0 miSW (230°)11.5 mph18.4 mphSnowLight Snow Showers
4:30 AM32.0 °F28.4 °F87 %29.65 in12.0 miSW (220°)12.7 mphSnowLight Snow Showers
5:30 AM32.0 °F28.4 °F87 %29.64 in12.0 miSW (230°)9.2 mphSnowLight Snow Showers
6:30 AM32.0 °F26.6 °F80 %29.64 in12.0 miSW (230°)13.8 mphSnowLight Snow Showers
6:57 AM32.0 °F28.4 °F87 %29.65 in4.0 miSW (220°)11.5 mphSnowLight Snow Showers
7:13 AM30.2 °F26.6 °F86 %29.65 in15.0 miSW (230°)9.2 mph17.3 mphSnowLight Snow Showers
7:30 AM30.2 °F26.6 °F86 %29.65 in12.0 miSW (230°)16.1 mphSnowLight Snow Showers
8:30 AM31.0 °F26.0 °F75 %29.67 in12.0 miSW (230°)16.1 mphSnowLight Snow Showers
8:30 AM32.0 °F26.6 °F80 %29.67 in12.0 miSW (230°)12.7 mph32.2 mphSnowLight Snow Showers
9:30 AM30.2 °F26.6 °F86 %29.66 in8.0 miSW (230°)13.8 mph23.0 mphSnowLight Snow Showers
10:00 AM30.2 °F26.6 °F86 %29.65 in6.0 miSW (230°)11.5 mph20.7 mphSnowLight Snow Showers
10:30 AM32.0 °F26.6 °F80 %29.66 in6.0 miSW (230°)15.0 mph25.3 mphSnowLight Snow Showers
11:30 AM32.0 °F28.4 °F87 %29.64 in12.0 miSW (220°)19.6 mphSnowLight Snow Showers
12:30 PM32.0 °F24.8 °F75 %29.63 in15.0 miSW (230°)17.3 mph27.6 mphSnowLight Snow Showers
1:30 PM32.0 °F26.6 °F80 %29.66 in3.0 miWSW (240°)16.1 mph26.5 mphSnowLight Snow Showers
2:04 PM33.8 °F28.4 °F81 %29.68 in12.0 miWest (280°)6.9 mphSnowLight Snow Showers
2:30 PM33.0 °F26.0 °F66 %29.70 in15.0 miWest (260°)10.4 mphSnowLight Snow Showers
2:30 PM32.0 °F26.6 °F80 %29.69 in15.0 miWest (260°)13.8 mphSnowLight Snow Showers
3:30 PM32.0 °F24.8 °F75 %29.68 in15.0 miWSW (250°)12.7 mph23.0 mphSnowLight Snow Showers
4:06 PM32.0 °F24.8 °F75 %29.70 in15.0 miWSW (240°)13.8 mph21.9 mphMostly Cloudy
4:30 PM32.0 °F24.8 °F75 %29.70 in15.0 miSW (230°)15.0 mph25.3 mphMostly Cloudy
5:30 PM32.0 °F24.8 °F75 %29.72 in15.0 miSW (230°)11.5 mph18.4 mphMostly Cloudy
6:30 PM30.2 °F24.8 °F80 %29.72 in15.0 miWSW (250°)11.5 mphMostly Cloudy
7:30 PM30.2 °F24.8 °F80 %29.75 in15.0 miWest (270°)4.6 mphMostly Cloudy
8:30 PM31.0 °F24.0 °F68 %29.75 in15.0 miWest (260°)8.1 mphPartly Cloudy
8:30 PM30.2 °F24.8 °F80 %29.75 in15.0 miWest (260°)8.1 mphMostly Cloudy
9:30 PM30.2 °F24.8 °F80 %29.75 in15.0 miSW (230°)4.6 mphMostly Cloudy
10:30 PM30.2 °F24.8 °F80 %29.76 in15.0 miSW (220°)6.9 mphMostly Cloudy
11:30 PM30.2 °F24.8 °F80 %29.77 in15.0 miSW (220°)6.9 mphMostly Cloudy
Hourly data recorded from CYDF, located miles away from Corner Brook, Newfoundland







STORIES FROM OUR PARTNERS